Preview of NWS' New Version of Forecast
This preview is not operational and should not be used for support decisions.

Regional Weather Roundup (RWR)

Issued by National Weather Service (NWS)

                            
000
ASUS44 KMEG 220800
RWRTN 
TENNESSEE HOURLY STATE WEATHER ROUNDUP
NATIONAL WEATHER SERVICE MEMPHIS TN
300 AM CDT WED MAY 22 2019

TNZ002-004-019-021-049-052-054-088>092-220900-
WEST TENNESSEE
  
CITY           SKY/WX    TMP DP  RH WIND       PRES   REMARKS
MEMPHIS INTL   CLOUDY    76  68  76 SW8       29.82F                  
NWS MEMPHIS      N/A     78 N/A N/A MISG        N/A                   
JACKSON        MOCLDY    77  67  71 S12G21    29.85S                  
DYERSBURG      CLOUDY    67  62  84 N5        29.86F                  
$$

TNZ008-025-027-028-033-062-065-066-220900-
NORTH MIDDLE TENNESSEE
  
CITY           SKY/WX    TMP DP  RH WIND       PRES   REMARKS
NASHVILLE      FAIR      74  62  66 S12       29.92F                  
CLARKSVILLE    FAIR      73  63  70 SE8       29.86F                  
SMYRNA         FAIR      72  64  76 SE8       29.94F                  
CROSSVILLE     FAIR      64  58  80 CALM      30.05R                  
$$

TNZ061-075-076-078-094-096-097-220900-
SOUTH MIDDLE TENNESSEE
  
CITY           SKY/WX    TMP DP  RH WIND       PRES   REMARKS
$$

TNZ017-018-042-046-047-220900-
NORTHEAST TENNESSEE
  
CITY           SKY/WX    TMP DP  RH WIND       PRES   REMARKS
TRI CITIES     FAIR      58  55  90 CALM      30.08S                  
$$

TNZ012-013-036-069-073-074-220900-
CENTRAL EAST TENNESSEE
  
CITY           SKY/WX    TMP DP  RH WIND       PRES   REMARKS
KNOXVILLE      FAIR      68  58  70 NE5       29.99R                  
OAK RIDGE      FAIR      65  59  81 CALM      30.03R                  
$$

TNZ083-085-099-220900-
SOUTHEAST TENNESSEE
  
CITY           SKY/WX    TMP DP  RH WIND       PRES   REMARKS
CHATTANOOGA    FAIR      71  67  87 CALM      30.00R                  
$$

SKY/WX REPORTED AS FAIR MEANS FEW OR NO CLOUDS BELOW
12 THOUSAND FEET.